Weather History for McGregor, TX

Change the Weather History Date:

Wednesday, November 21, 2012

  Actual Average Record
Temperature  
Mean Temperature 64 °F -  
Max Temperature 82 °F 64 °F 82 °F (2012)
Min Temperature 46 °F 45 °F 28 °F (2005)
Degree Days  
Heating Degree Days 1    
Growing Degree Days 14 (Base 50)    
Moisture  
Dew Point 46 °F    
Average Humidity 60    
Maximum Humidity 88    
Minimum Humidity 30    
Precipitation  
Precipitation 0.00 in - - ()
Sea Level Pressure  
Sea Level Pressure 30.21 in    
Wind  
Wind Speed 4 mph (SSE)    
Max Wind Speed 14 mph    
Max Gust Speed 18 mph    
Visibility 9 miles    
Events      
Averages and records for this station are not official NWS values.
T = Trace of Precipitation, MM = Missing Value Source: NWS Daily Summary

Daily Weather History Graph

Daily Weather History Graph

Search for Another Location

Airport:

Trip Planner

Search our weather history database for the weather conditions in past years. The results will help you decide how hot, cold, wet, or windy it might be!

Date:

Astronomy

Nov. 21, 2012 Rise Set
Actual Time 7:02 AM CST 5:27 PM CST
Civil Twilight 6:36 AM CST 5:53 PM CST
Nautical Twilight 6:07 AM CST 6:23 PM CST
Astronomical Twilight 5:37 AM CST 6:52 PM CST
Moon 1:24 PM CST (11/21) 12:46 AM CST (11/21)
Length of Visible Light 11h 17m
Length of Day
10h 24m
First Quarter, 62% of the Moon is Illuminated
Nov 21
First Quarter
Nov 28
Full
Dec 6
Last Quarter
Dec 13
New
Dec 19
First Quarter

Hourly Weather History & Observations

Time (CST) Temp. Dew Point Humidity Pressure Visibility Wind Dir Wind Speed Gust Speed Precip Events Conditions
12:15 AM 55.4 °F 48.2 °F 77% 30.21 in 10.0 mi SW 3.5 mph - N/A   Clear
12:35 AM 55.4 °F 48.2 °F 77% 30.21 in 10.0 mi WSW 3.5 mph - N/A   Clear
12:55 AM 55.4 °F 48.2 °F 77% 30.21 in 10.0 mi Calm Calm - N/A   Clear
1:15 AM 51.8 °F 44.6 °F 76% 30.21 in 10.0 mi NNE 5.8 mph - N/A   Clear
1:35 AM 53.6 °F 46.4 °F 77% 30.21 in 10.0 mi NNE 5.8 mph - N/A   Clear
1:55 AM 53.6 °F 48.2 °F 82% 30.21 in 10.0 mi NNE 5.8 mph - N/A   Clear
2:15 AM 53.6 °F 48.2 °F 82% 30.21 in 10.0 mi NNE 4.6 mph - N/A   Clear
2:35 AM 53.6 °F 48.2 °F 82% 30.22 in 10.0 mi NNE 4.6 mph - N/A   Clear
2:55 AM 53.6 °F 48.2 °F 82% 30.22 in 10.0 mi NNE 4.6 mph - N/A   Clear
3:15 AM 53.6 °F 46.4 °F 77% 30.22 in 10.0 mi North 3.5 mph - N/A   Clear
3:35 AM 51.8 °F 46.4 °F 82% 30.22 in 10.0 mi Calm Calm - N/A   Clear
3:55 AM 50.0 °F 44.6 °F 82% 30.22 in 9.0 mi Calm Calm - N/A   Clear
4:15 AM 50.0 °F 44.6 °F 82% 30.22 in 9.0 mi Calm Calm - N/A   Clear
4:35 AM 50.0 °F 44.6 °F 82% 30.22 in 9.0 mi Calm Calm - N/A   Clear
4:55 AM 48.2 °F 44.6 °F 87% 30.22 in 9.0 mi Calm Calm - N/A   Clear
5:15 AM 48.2 °F 42.8 °F 82% 30.22 in 10.0 mi Calm Calm - N/A   Clear
5:35 AM 48.2 °F 42.8 °F 82% 30.23 in 10.0 mi Calm Calm - N/A   Clear
5:55 AM 48.2 °F 44.6 °F 87% 30.23 in 10.0 mi Calm Calm - N/A   Clear
6:15 AM 48.2 °F 44.6 °F 87% 30.24 in 9.0 mi Calm Calm - N/A   Clear
6:35 AM 48.2 °F 42.8 °F 82% 30.24 in 7.0 mi Calm Calm - N/A   Clear
6:55 AM 48.2 °F 44.6 °F 87% 30.25 in 4.0 mi Calm Calm - N/A   Clear
7:15 AM 46.4 °F 42.8 °F 87% 30.26 in 5.0 mi Calm Calm - N/A   Partly Cloudy
7:35 AM 48.2 °F 42.8 °F 82% 30.26 in 1.5 mi NNW 3.5 mph - N/A   Overcast
7:55 AM 48.2 °F 44.6 °F 87% 30.27 in 0.2 mi Calm Calm - N/A   Overcast
8:15 AM 48.2 °F 44.6 °F 87% 30.28 in 2.5 mi Calm Calm - N/A   Mostly Cloudy
8:35 AM 51.8 °F 46.4 °F 82% 30.28 in 5.0 mi Calm Calm - N/A   Partly Cloudy
8:55 AM 53.6 °F 50.0 °F 88% 30.28 in 5.0 mi Calm Calm - N/A   Clear
9:15 AM 59.0 °F 51.8 °F 77% 30.28 in 7.0 mi Calm Calm - N/A   Clear
9:35 AM 62.6 °F 53.6 °F 72% 30.28 in 9.0 mi Calm Calm - N/A   Clear
9:55 AM 64.4 °F 53.6 °F 68% 30.28 in 10.0 mi Calm Calm - N/A   Clear
10:15 AM 68.0 °F 55.4 °F 64% 30.28 in 10.0 mi Calm Calm - N/A   Clear
10:35 AM 71.6 °F 55.4 °F 57% 30.28 in 10.0 mi Calm Calm - N/A   Clear
10:55 AM 71.6 °F 55.4 °F 57% 30.28 in 10.0 mi Calm Calm - N/A   Clear
11:15 AM 75.2 °F 57.2 °F 53% 30.26 in 10.0 mi Calm Calm - N/A   Clear
11:35 AM 77.0 °F 57.2 °F 50% 30.26 in 10.0 mi ESE 4.6 mph - N/A   Clear
11:55 AM 78.8 °F 57.2 °F 47% 30.25 in 10.0 mi SSE 9.2 mph - N/A   Clear
12:15 PM 78.8 °F 53.6 °F 42% 30.24 in 10.0 mi SE 8.1 mph - N/A   Clear
12:35 PM 78.8 °F 51.8 °F 39% 30.23 in 10.0 mi SSE 13.8 mph - N/A   Clear
12:55 PM 78.8 °F 51.8 °F 39% 30.22 in 10.0 mi SSE 5.8 mph - N/A   Clear
1:15 PM 80.6 °F 51.8 °F 37% 30.21 in 10.0 mi South 13.8 mph - N/A   Clear
1:35 PM 82.4 °F 51.8 °F 35% 30.20 in 10.0 mi SSE 13.8 mph - N/A   Clear
1:55 PM 80.6 °F 48.2 °F 32% 30.19 in 10.0 mi SSW 5.8 mph 18.4 mph N/A   Clear
2:15 PM 80.6 °F 46.4 °F 30% 30.19 in 10.0 mi South 5.8 mph - N/A   Clear
2:35 PM 80.6 °F 46.4 °F 30% 30.18 in 10.0 mi SSW 8.1 mph - N/A   Clear
2:55 PM 80.6 °F 46.4 °F 30% 30.18 in 10.0 mi SSE 6.9 mph - N/A   Clear
3:15 PM 80.6 °F 46.4 °F 30% 30.17 in 10.0 mi South 10.4 mph - N/A   Clear
3:35 PM 78.8 °F 44.6 °F 30% 30.17 in 10.0 mi South 6.9 mph - N/A   Clear
3:55 PM 77.0 °F 44.6 °F 32% 30.17 in 10.0 mi SSE 6.9 mph - N/A   Clear
4:15 PM 78.8 °F 46.4 °F 32% 30.17 in 10.0 mi SE 9.2 mph - N/A   Clear
4:35 PM 77.0 °F 44.6 °F 32% 30.17 in 10.0 mi SE 8.1 mph - N/A   Clear
4:55 PM 75.2 °F 44.6 °F 34% 30.17 in 10.0 mi SE 8.1 mph - N/A   Clear
5:15 PM 73.4 °F 42.8 °F 33% 30.16 in 10.0 mi SE 8.1 mph - N/A   Clear
5:35 PM 69.8 °F 42.8 °F 38% 30.16 in 4.0 mi ESE 6.9 mph - N/A   Clear
5:55 PM 69.8 °F 42.8 °F 38% 30.17 in 10.0 mi SE 5.8 mph - N/A   Clear
6:15 PM 66.2 °F 42.8 °F 43% 30.17 in 10.0 mi SE 4.6 mph - N/A   Clear
6:35 PM 66.2 °F 42.8 °F 43% 30.17 in 10.0 mi SE 4.6 mph - N/A   Clear
6:55 PM 64.4 °F 44.6 °F 49% 30.18 in 10.0 mi South 5.8 mph - N/A   Clear
7:15 PM 64.4 °F 42.8 °F 45% 30.18 in 10.0 mi South 4.6 mph - N/A   Clear
7:35 PM 62.6 °F 42.8 °F 48% 30.18 in 10.0 mi South 5.8 mph - N/A   Clear
7:55 PM 62.6 °F 42.8 °F 48% 30.18 in 10.0 mi SSW 5.8 mph - N/A   Clear
8:15 PM 60.8 °F 44.6 °F 55% 30.18 in 10.0 mi SSW 6.9 mph - N/A   Clear
8:35 PM 60.8 °F 44.6 °F 55% 30.18 in 10.0 mi South 6.9 mph - N/A   Clear
8:55 PM 60.8 °F 42.8 °F 52% 30.18 in 10.0 mi SSW 5.8 mph - N/A   Clear
9:15 PM 60.8 °F 42.8 °F 52% 30.18 in 10.0 mi South 6.9 mph - N/A   Clear
9:35 PM 59.0 °F 42.8 °F 55% 30.18 in 10.0 mi SSW 5.8 mph - N/A   Clear
9:55 PM 57.2 °F 42.8 °F 59% 30.18 in 10.0 mi South 8.1 mph - N/A   Clear
10:15 PM 57.2 °F 42.8 °F 59% 30.18 in 10.0 mi South 5.8 mph - N/A   Clear
10:35 PM 55.4 °F 42.8 °F 63% 30.18 in 10.0 mi SSW 5.8 mph - N/A   Clear
10:55 PM 55.4 °F 41.0 °F 58% 30.17 in 10.0 mi South 5.8 mph - N/A   Clear
11:15 PM 55.4 °F 41.0 °F 58% 30.16 in 10.0 mi SSW 8.1 mph - N/A   Clear
11:35 PM 57.2 °F 42.8 °F 59% 30.16 in 10.0 mi SSW 5.8 mph - N/A   Clear
11:55 PM 57.2 °F 41.0 °F 55% 30.15 in 10.0 mi SSW 5.8 mph - N/A   Clear